Weather History for Martinsburg, WV

Change the Weather History Date:

Sunday, November 24, 2013

  Actual Average Record
Temperature  
Mean Temperature 26 °F 41 °F  
Max Temperature 30 °F 51 °F 75 °F (1931)
Min Temperature 21 °F 32 °F 14 °F (1956)
Degree Days  
Heating Degree Days 39 24  
Month to date heating degree days 486 473  
Since 1 July heating degree days 883 919  
Cooling Degree Days 0 0  
Month to date cooling degree days 0 0  
Year to date cooling degree days 1057 895  
Moisture  
Dew Point 3 °F    
Average Humidity 39    
Maximum Humidity 45    
Minimum Humidity 33    
Precipitation  
Precipitation 0.00 in 0.10 in 1.75 in (1980)
Month to date precipitation 0.61 2.47  
Year to date precipitation 29.71 35.33  
Sea Level Pressure  
Sea Level Pressure 30.42 in    
Wind  
Wind Speed 16 mph (WNW)    
Max Wind Speed 30 mph    
Max Gust Speed 39 mph    
Visibility 10 miles    
Events      
T = Trace of Precipitation, MM = Missing Value Source: NWS Daily Summary

Daily Weather History Graph

Daily Weather History Graph

Search for Another Location

Airport:

Trip Planner

Search our weather history database for the weather conditions in past years. The results will help you decide how hot, cold, wet, or windy it might be!

Date:

Astronomy

Nov. 24, 2013 Rise Set
Actual Time 7:05 AM EST 4:51 PM EST
Civil Twilight 6:36 AM EST 5:20 PM EST
Nautical Twilight 6:03 AM EST 5:53 PM EST
Astronomical Twilight 5:31 AM EST 6:25 PM EST
Moon 11:14 PM EST (11/24) 11:53 AM EST (11/24)
Length of Visible Light 10h 43m
Length of Day
9h 45m
Waning Gibbous, 61% of the Moon is Illuminated
Nov 24
Waning Gibbous
Nov 25
Last Quarter
Dec 2
New
Dec 9
First Quarter
Dec 17
Full

Hourly Weather History & Observations

Time (EST) Temp. Windchill Dew Point Humidity Pressure Visibility Wind Dir Wind Speed Gust Speed Precip Events Conditions
12:53 AM 26.1 °F 15.0 °F 1.0 °F 34% 30.27 in 10.0 mi WNW 12.7 mph 25.3 mph N/A   Clear
1:53 AM 25.0 °F 12.2 °F -0.9 °F 33% 30.29 in 10.0 mi NW 16.1 mph 25.3 mph N/A   Clear
2:53 AM 23.0 °F 10.6 °F -0.0 °F 37% 30.30 in 10.0 mi WNW 13.8 mph 23.0 mph N/A   Clear
3:53 AM 23.0 °F 8.7 °F -0.0 °F 37% 30.31 in 10.0 mi WNW 18.4 mph 23.0 mph N/A   Clear
4:53 AM 23.0 °F 8.3 °F 1.0 °F 39% 30.33 in 10.0 mi NW 19.6 mph 35.7 mph N/A   Clear
5:53 AM 21.9 °F 6.9 °F 1.9 °F 42% 30.35 in 10.0 mi NW 19.6 mph 31.1 mph N/A   Clear
6:53 AM 21.9 °F 6.9 °F 3.0 °F 44% 30.36 in 10.0 mi WNW 19.6 mph 26.5 mph N/A   Mostly Cloudy
7:53 AM 23.0 °F 8.0 °F 3.0 °F 42% 30.39 in 10.0 mi WNW 20.7 mph 27.6 mph N/A   Clear
8:53 AM 25.0 °F 10.2 °F 3.0 °F 39% 30.43 in 10.0 mi WNW 21.9 mph 29.9 mph N/A   Clear
9:53 AM 27.0 °F 12.8 °F 3.0 °F 36% 30.44 in 10.0 mi WNW 21.9 mph 31.1 mph N/A   Scattered Clouds
10:53 AM 27.0 °F 13.2 °F 3.0 °F 36% 30.44 in 10.0 mi NW 20.7 mph 32.2 mph N/A   Mostly Cloudy
11:53 AM 28.9 °F 16.5 °F 3.9 °F 35% 30.43 in 10.0 mi WNW 18.4 mph 35.7 mph N/A   Mostly Cloudy
12:53 PM 28.9 °F 16.1 °F 5.0 °F 36% 30.43 in 10.0 mi WNW 19.6 mph 31.1 mph N/A   Mostly Cloudy
1:53 PM 28.9 °F 16.9 °F 3.9 °F 35% 30.43 in 10.0 mi WNW 17.3 mph 29.9 mph N/A   Overcast
2:53 PM 28.9 °F 16.5 °F 5.0 °F 36% 30.44 in 10.0 mi WNW 18.4 mph - N/A   Mostly Cloudy
3:53 PM 28.0 °F 16.1 °F 3.9 °F 36% 30.45 in 10.0 mi NW 16.1 mph - N/A   Partly Cloudy
4:53 PM 26.1 °F 14.5 °F 3.9 °F 39% 30.47 in 10.0 mi NW 13.8 mph 25.3 mph N/A   Partly Cloudy
5:53 PM 25.0 °F 16.3 °F 3.9 °F 41% 30.49 in 10.0 mi WNW 8.1 mph - N/A   Clear
6:53 PM 25.0 °F 13.6 °F 3.0 °F 39% 30.51 in 10.0 mi WNW 12.7 mph - N/A   Clear
7:53 PM 24.1 °F 13.7 °F 3.9 °F 42% 30.52 in 10.0 mi WNW 10.4 mph 20.7 mph N/A   Clear
8:53 PM 24.1 °F 12.5 °F 5.0 °F 44% 30.52 in 10.0 mi NW 12.7 mph 20.7 mph N/A   Clear
9:53 PM 23.0 °F 9.6 °F 5.0 °F 46% 30.53 in 10.0 mi WNW 16.1 mph 23.0 mph N/A   Clear
10:53 PM 21.9 °F 14.5 °F 3.9 °F 46% 30.53 in 10.0 mi West 5.8 mph - N/A   Clear
11:53 PM 21.0 °F 11.4 °F 5.0 °F 50% 30.53 in 10.0 mi West 8.1 mph - N/A   Clear